Nathan Johnson

Chief Scout - Middlesbrough
16 Sep 2027
Thursday
Process

Personality

Adaptability (13) Ambition (11) Controversy (15) Loyalty (9) Pressure (2) Professionalism (13) Sportsmanship (5) Temperament (3)

Profile

Coaching Style Democratic
License Continental C
Determination 6
Man Management 8
Motivating 9
Discipline 5
Job Satisfaction
100%
Fatigue
0%
Role Chief Scout
Wage 95.0K p/w
Contract 14.03.2029

Performance

Behaviour Good
Training Effectiveness
46%
Player Development
35%
Injury Prevention
65%
Tactical Implementation
65%

Recent Events

Attended a recruitment meeting 7d ago
Attended a recruitment meeting 14d ago
Attended a recruitment meeting 21d ago
Attended a recruitment meeting 28d ago
Attended a recruitment meeting 35d ago
Attended a recruitment meeting 42d ago
Attended a recruitment meeting 49d ago
Attended a recruitment meeting 56d ago

Currently Monitoring

170
Player Club Status Ability Confidence Watched Last Observed Latest Vote
Ewan Henderson Wycombe Wanderers Report Ready 116 / 108 86% 1 16.08.2027 -
Eric Bocat Stoke City Lost 114 / 111 86% 1 28.06.2027 -
Yehor Yarmoliuk Brentford Active 148 / 153 40% 3 21.06.2027 -
Christos Mouzakitis Hull City Active 131 / 153 40% 3 21.06.2027 -
Murillo Nottingham Forest Active 154 / 144 40% 3 21.06.2027 -
Harry Pickering Blackburn Rovers Lost 120 / 112 86% 1 21.06.2027 -
Keagan Tau Ajax Cape Town Active 93 / 106 40% 2 01.06.2027 -
Matías Gómez Granada Active 115 / 127 40% 1 01.06.2027 -
Leandro Martins Benfica Active 96 / 105 40% 1 01.06.2027 -
Tom Fellows Southampton Active 130 / 140 40% 3 30.05.2027 -
Williams Manyama SuperSport United Active 118 / 101 40% 2 30.05.2027 -
Mohamed Belloumi Hull City Active 134 / 137 40% 1 30.05.2027 -
Juan Mosquera Sheffield Wednesday Active 127 / 117 40% 4 27.05.2027 -
Amadou Onana Aston Villa Active 155 / 151 40% 3 27.05.2027 -
Guille Rosas Gijón Active 136 / 137 40% 1 27.05.2027 -
Richard Koné Queens Park Rangers Active 124 / 120 40% 1 27.05.2027 -
Scott Twine Bristol City Active 124 / 130 40% 1 27.05.2027 -
Jack Diamond Stockport County Active 117 / 106 40% 1 27.05.2027 -
Hlompho Lorch Ajax Cape Town Active 96 / 104 40% 2 26.05.2027 -
Daniel Kelly Oxford United Active 110 / 112 40% 1 26.05.2027 -
Jan Bürger Gillingham Active 115 / 124 40% 1 26.05.2027 -
Dango Ouattara Brentford Active 152 / 136 40% 6 25.05.2027 -
Adrien Truffert Bournemouth Active 147 / 137 40% 7 25.05.2027 -
Assane Diao Lazio Active 147 / 145 40% 2 25.05.2027 -
Florentino Luís Ipswich Town Active 141 / 140 40% 9 25.05.2027 -
Giorgi Chakvetadze Watford Active 130 / 121 40% 2 25.05.2027 -
Jack Hinshelwood Brighton Active 144 / 155 40% 1 25.05.2027 -
Nathan Collins Brentford Active 151 / 158 40% 8 22.05.2027 -
Toby Collyer West Bromwich Albion Active 136 / 127 40% 4 22.05.2027 -
Mats Wieffer Brighton Active 151 / 157 40% 5 21.05.2027 -
Ousmane Diomande Nottingham Forest Active 155 / 156 40% 4 21.05.2027 -
Tariq Lamptey Queens Park Rangers Active 136 / 136 40% 6 21.05.2027 -
Milan van Ewijk Mansfield Town Active 129 / 126 40% 5 20.05.2027 -
Luke McNally Bristol City Active 129 / 136 40% 2 20.05.2027 -
Adam Wharton Crystal Palace Active 153 / 163 40% 11 19.05.2027 -
Jake O'Brien Everton Active 151 / 133 40% 7 19.05.2027 -
Oliver Skipp Leicester City Active 135 / 126 40% 4 18.05.2027 -
Ryan Sessegnon Fulham Active 150 / 157 40% 7 17.05.2027 -
Pelle Mattsson Norwich City Active 122 / 113 40% 5 17.05.2027 -
Kevin Fulham Active 152 / 155 40% 4 17.05.2027 -
Cian Ashford Cardiff City Active 117 / 118 40% 1 17.05.2027 -
Edoardo Bove Watford Active 131 / 132 40% 1 17.05.2027 -
Ethan Galbraith Swansea City Active 136 / 125 40% 8 16.05.2027 -
Max Bird Birmingham Active 128 / 142 40% 6 16.05.2027 -
Harry Clarke Preston Active 128 / 129 40% 4 14.05.2027 -
Shea Charles Southampton Active 140 / 140 40% 4 12.05.2027 -
Tshepang Moremi Orlando Pirates Active 111 / 98 40% 3 12.05.2027 -
Nuno Tavares Lazio Active 152 / 153 40% 3 12.05.2027 -
Habib Diarra Sunderland Active 137 / 142 40% 3 12.05.2027 -
Welington Southampton Active 130 / 124 40% 9 11.05.2027 -
Giacomo Raspadori Atalanta Active 149 / 150 40% 5 10.05.2027 -
Isaiah Jones Luton Town Active 123 / 118 40% 1 10.05.2027 -
Stanley Mills Oxford United Active 127 / 136 40% 3 09.05.2027 -
Bosun Lawal Stoke City Active 125 / 141 40% 3 08.05.2027 -
Yussif Saidu Zaragoza Active 124 / 133 40% 1 07.05.2027 -
Finley McAllister Grimsby Town Active 89 / 97 40% 1 07.05.2027 -
Adam Bakoune Ospitaletto Active 95 / 113 40% 1 07.05.2027 -
Michael Kayode Brentford Active 146 / 142 40% 6 06.05.2027 -
Othmane Maamma Watford Active 128 / 120 40% 3 06.05.2027 -
Eduardo Felicíssimo Sporting CP Active 106 / 126 40% 1 05.05.2027 -
Joel McGregor Swindon Town Active 91 / 105 40% 1 05.05.2027 -
James Garner Everton Active 151 / 157 40% 6 03.05.2027 -
Derry Murkin Derby County Active 130 / 129 40% 3 30.04.2027 -
Quinten Timber Crystal Palace Active 147 / 153 40% 5 30.04.2027 -
Jacques Ekomié Wrexham Active 132 / 130 40% 5 28.04.2027 -
Jason Knight Bristol City Active 133 / 125 40% 1 23.04.2027 -
Enzo Le Fée Sunderland Active 141 / 148 40% 1 23.04.2027 -
Bobby Thomas Coventry City Active 131 / 136 40% 2 21.04.2027 -
Nicolò Rovella Lazio Active 152 / 163 40% 1 21.04.2027 -
Jarrad Branthwaite Everton Active 155 / 164 40% 7 20.04.2027 -
Boubacar Kamara Aston Villa Active 166 / 170 40% 2 20.04.2027 -
Teden Mengi Luton Town Active 128 / 133 40% 3 19.04.2027 -
Nadir Zortea Bologna Active 141 / 138 40% 1 19.04.2027 -
Óscar Mingueza Crystal Palace Active 154 / 160 40% 6 18.04.2027 -
Aaron Hickey Brentford Active 149 / 154 40% 5 18.04.2027 -
Imrân Louza Watford Active 130 / 142 40% 5 17.04.2027 -
Brian De Keersmaecker Oxford United Active 124 / 116 40% 1 17.04.2027 -
Matt O'Riley Brighton Active 151 / 153 40% 1 17.04.2027 -
Carlos Vicente Birmingham Lost 148 / 135 40% 3 15.04.2027 -
Yankuba Minteh Brighton Active 148 / 155 40% 1 15.04.2027 -
Derensili Sanches Fernandes Huddersfield Town Active 121 / 137 40% 1 15.04.2027 -
Josh Tymon Swansea City Active 126 / 133 40% 5 12.04.2027 -
Noah Sadiki Sunderland Active 143 / 150 40% 3 08.04.2027 -
Mandla Erasmus SuperSport United Active 115 / 120 40% 1 08.04.2027 -
Ibrahim Maza Bayer Leverkusen Active 143 / 157 40% 1 08.04.2027 -
Christian Krasnodar Active 135 / 125 40% 5 04.04.2027 -
Juanlu Bournemouth Active 147 / 144 40% 5 03.04.2027 -
Bradley Tau SuperSport United Active 128 / 122 40% 5 01.04.2027 -
Derrick Fordjour Medeama Active 97 / 98 40% 1 01.04.2027 -
Mohamed-Ali Cho Hull City Active 136 / 140 40% 2 29.03.2027 -
Borja Sainz Fiorentina Active 147 / 149 40% 1 25.03.2027 -
Siyanda Ndlovu Bloemfontein Celtic Active 125 / 106 40% 1 25.03.2027 -
Mduduzi Shabalala Kaizer Chiefs Active 109 / 120 40% 1 23.03.2027 -
Femi Seriki Sheffield United Active 124 / 126 40% 1 19.03.2027 -
Georginio Rutter Brighton Active 145 / 140 40% 7 17.03.2027 -
Mikkel Damsgaard Brentford Active 152 / 148 40% 1 17.03.2027 -
Marcelo Allende Mamelodi Sundowns Active 139 / 110 40% 1 14.03.2027 -
Alessandro Buongiorno Sassuolo Active 158 / 160 40% 1 10.03.2027 -
Anel Ahmedhodžić Burnley Active 132 / 146 40% 3 09.03.2027 -
Finn Azaz Southampton Active 128 / 124 40% 1 07.03.2027 -
Ismail Al Suwaidi Al Fujairah Active 121 / 111 40% 1 07.03.2027 -
Surprise Manthosi Polokwane City Active 90 / 88 40% 1 07.03.2027 -
Calvin Bassey Fulham Active 154 / 151 40% 2 04.03.2027 -
Siyanda Msani University of Pretoria Active 103 / 101 40% 1 03.03.2027 -
Ian Maatsen Aston Villa Active 153 / 153 40% 1 01.03.2027 -
Marlon Gomes Shakhtar Active 133 / 138 40% 1 17.02.2027 -
Kristoffer Lund Birmingham Active 127 / 137 40% 1 14.02.2027 -
Darlin Yongwa Norwich City Active 120 / 111 40% 1 09.02.2027 -
Gustavo Mantuan Zenit Active 134 / 130 40% 1 06.02.2027 -
Dara O'Shea Ipswich Town Active 136 / 126 40% 1 03.02.2027 -
Adam Randell Bristol City Active 130 / 139 40% 1 03.02.2027 -
Ricardo Pepi Chelsea Active 142 / 145 69% 1 25.01.2027 -
Stanislav Agkatsev Sunderland Negotiating 132 / 133 66% 1 01.01.2027 -
Dmytro Riznyk Cruz Azul Negotiating 137 / 137 66% 1 01.01.2027 Approve
Armando Broja Burnley Active 134 / 125 40% 5 29.12.2026 -
Ruben van Bommel Ferencvaros Active 132 / 128 40% 2 29.12.2026 -
Lorenzo Colombo Genoa Active 136 / 140 40% 2 29.12.2026 -
Iliman N'Diaye Everton Active 161 / 160 40% 9 27.12.2026 -
Dwight McNeil Crystal Palace Active 138 / 151 40% 1 25.12.2026 -
Ismaïla Sarr Crystal Palace Active 145 / 161 40% 2 24.12.2026 -
Jean-Philippe Mateta Crystal Palace Active 151 / 153 40% 6 22.12.2026 -
Youssef En-Nesyri Al-Ittihad Active 144 / 134 40% 5 22.12.2026 -
Nicolas Madsen Queens Park Rangers Active 125 / 116 40% 2 22.12.2026 -
Rico Lewis Manchester City Active 149 / 166 40% 3 20.12.2026 -
Lukáš Červ Viktoria Plzen Active 128 / 135 40% 2 20.12.2026 -
Elliot Anderson Manchester City Active 158 / 139 40% 2 19.12.2026 -
Nicolás Fernández Mercau Shakhtar Active 137 / 145 40% 3 17.12.2026 -
Gabriel Martinelli Brighton Active 165 / 160 40% 5 16.12.2026 -
Gonzalo Fulham Active 147 / 157 40% 5 16.12.2026 -
Zeki Amdouni Burnley Active 128 / 139 40% 2 16.12.2026 -
Jørgen Strand Larsen Crystal Palace Active 142 / 155 40% 5 12.12.2026 -
Eddie Nketiah Crystal Palace Active 144 / 137 40% 3 11.12.2026 -
Steven Bergwijn Al-Ittihad Active 145 / 151 40% 2 11.12.2026 -
Tyler Adams Bournemouth Active 154 / 164 40% 2 11.12.2026 -
Dominic Calvert-Lewin Leeds United Active 139 / 150 40% 4 08.12.2026 -
Thiago Brentford Active 142 / 159 40% 2 07.12.2026 -
Jarrod Bowen West Ham United Active 159 / 141 40% 4 04.12.2026 -
Sam Surridge Nashville SC Active 140 / 145 40% 1 04.12.2026 -
Manfred Ugalde Spartak Moscow Active 130 / 122 40% 1 02.12.2026 -
Taty Castellanos West Ham United Active 151 / 156 40% 7 01.12.2026 -
Andrea Pinamonti Lazio Active 139 / 125 40% 1 29.11.2026 -
Wilson Isidor Sunderland Active 137 / 121 40% 2 28.11.2026 -
Nicolò Zaniolo Udinese Active 137 / 137 40% 2 27.11.2026 -
Joshua Zirkzee Manchester United Active 138 / 151 40% 2 26.11.2026 -
Noah Okafor Leeds United Active 146 / 149 40% 3 26.11.2026 -
Pablo Felipe West Ham United Active 131 / 134 40% 3 25.11.2026 -
Breel Embolo Atlanta United FC Active 131 / 147 40% 5 24.11.2026 -
Mattia Felici Cagliari Active 131 / 139 40% 1 22.11.2026 -
Brian Brobbey Sunderland Active 139 / 136 40% 1 21.11.2026 -
Álvaro Rodríguez Bournemouth Active 137 / 125 40% 2 14.11.2026 -
Bryan Ramírez FC Cincinnati Active 123 / 114 40% 1 11.11.2026 -
Conrad Wallem Austria Wien Active 127 / 115 40% 1 11.11.2026 -
Gabriel Jesus Barcelona Active 151 / 145 40% 5 08.11.2026 -
Kerem Aktürkoğlu Fenerbahce Active 143 / 140 40% 3 05.11.2026 -
Barış Alper Yılmaz Galatasaray Active 147 / 165 40% 3 05.11.2026 -
Mateo Pellegrino Fiorentina Active 134 / 142 40% 1 05.11.2026 -
Razvan Balasa Crvena Zvezda Active 149 / 151 40% 2 28.10.2026 -
Adnan Courtois KV Oostende Active 132 / 124 40% 4 23.10.2026 -
Japhet Sery Larsen Philadelphia Union Active 116 / 112 40% 1 21.10.2026 -
Romelu Castagne KV Oostende Active 132 / 147 40% 2 13.10.2026 -
Nicolò Tresoldi Club Brugge Active 127 / 138 40% 1 11.10.2026 -
Kimito Nono Sanfrecce Hiroshima Active 118 / 115 40% 1 09.10.2026 -
Lukas Engel Real Salt Lake Active 125 / 115 40% 1 09.10.2026 -
Cody Gakpo Liverpool Active 161 / 155 40% 4 06.10.2026 -
Federico Chiesa Liverpool Active 152 / 161 40% 2 05.10.2026 -
Lucas Halter Houston Dynamo Active 123 / 104 40% 1 05.10.2026 -
Petar Musa Adana Demirspor Active 127 / 117 40% 2 02.10.2026 -
Diego Rossi Monterrey Active 138 / 124 40% 1 27.09.2026 -
Martín Ojeda Orlando City Active 126 / 153 40% 1 22.09.2026 -
Erick Sánchez OGC Nice Negotiating 139 / 139 66% 1 24.08.2026 -